Weather in Castolovice

Czech Republic     50°07′45″N   16°11′00″E
temp.,
°C
wind,
m/s
gust,
m/s
humid.,
%
clouds,
%
prec.,
mm/h
press.,
hPa
HPBL,
m
28 november, sun
sun2801:00−2se359570 0.0 999157
04:00−4ese2596100 0.0 99882
07:00−4e1197100 0.0 99911
10:000ne1190100 0.1 998122
13:000nne2798100 3.4 995397
16:00−1nw2599100 6.3 995301
19:00−1nw3699100 8.3 996343
22:00−2nw389993 0.8 996422
29 november, mon
mon2901:00−2wnw129981 1.0 998107
04:00−5sse11100100 0.1 99972
07:00−4wsw1210099 0.1 1000158
10:00−3wsw2396100 0.1 1002314
13:00−1w499598 0.2 1002745
16:00−2w5119471 0.1 1003488
19:00−3w4139457 0.2 1005477
22:00−3w51197100 0.1 1007545
30 november, tue
tue3001:00−3w499893 0.3 1008477
04:00−4w3109888 0.1 1011411
07:00−4w3109892 0.2 1012428
10:00−2wsw4119799 0.4 1012654
13:00−1wsw61599100 1.3 1008844
16:00−1wsw81799100 2.8 10061177
19:00−1wsw61599100 6.6 1005919
22:000w71599100 2.9 10051021
1 december, wed
wed101:000w614100100 5.1 1005913
04:00+1w613100100 0.6 1006767
07:00+1wsw312100100 1.1 1007632
10:00+1ssw310100100 0.9 1006519
13:00+2sw514100100 2.1 1004621
16:00+2ssw614100100 0.1 1002642
19:00+2ssw61599100 0.2 1001675
22:00+2sw61596100 0.0 1000622
2 december, thu
thu201:00+1sw41199100 0.0 999510
04:00+1ssw412100100 0.2 999551
07:00+2ssw51299100 0.3 999538
10:00+2ssw51399100 0.1 999612
13:00+2sw51196100 0.1 998520
16:00+2sw4995100 0.1 998409
19:00+1s3799100 0.1 999346
22:00+1s2499100 0.1 999224